This demonstration page uses our WeatherBlox Daily Observations layout. Learn more.

Left ArrowRight Arrow

39.12711, -84.51439

Hourly Observations for June 13, 2016

Temp ( °F °C ) Dew Point ( °F °C ) Humidity (%) Winds ( mph kmh ) Pressure ( in mb ) Visibility ( mi km ) Precip ( " mm )
12:53 am 00:53 Clear 60 15.6 55 12.8 84 84 N N/A 30.04 1017 10 16 N/A
1:53 am 01:53 Clear 59 15 54 12.2 83 83 N N/A 30.04 1017 10 16 N/A
2:53 am 02:53 Clear 56 13.3 53 11.7 90 90 N N/A 30.05 1018 10 16 N/A
3:53 am 03:53 Clear 56 13.3 54 12.2 93 93 NE 3 6 30.05 1018 10 16 N/A
4:53 am 04:53 Clear 53 11.7 53 11.7 100 100 N N/A 30.05 1018 10 16 N/A
5:53 am 05:53 Clear 54 12.2 54 12.2 100 100 N N/A 30.06 1018 10 16 N/A
6:53 am 06:53 Sunny 54 12.2 53 11.7 97 97 ENE 3 6 30.07 1018 10 16 N/A
7:53 am 07:53 Sunny 59 15 55 12.8 87 87 N N/A 30.09 1019 10 16 N/A
8:53 am 08:53 Sunny 64 17.8 54 12.2 70 70 N 6 9 30.09 1019 10 16 N/A
9:53 am 09:53 Sunny 70 21.1 54 12.2 57 57 N 5 7 30.08 1019 10 16 N/A
10:53 am 10:53 Sunny 74 23.3 50 10 43 43 ENE 6 9 30.06 1018 10 16 N/A
11:53 am 11:53 Sunny 77 25 49 9.4 37 37 N N/A 30.05 1018 10 16 N/A
12:53 pm 12:53 Sunny 77 25 54 12.2 45 45 SW 9 15 30.04 1017 10 16 N/A
1:53 pm 13:53 Sunny 79 26.1 49 9.4 35 35 N N/A 30.02 1017 10 16 N/A
2:53 pm 14:53 Sunny 80 26.7 50 10 35 35 VRB 6 9 29.99 1016 10 16 N/A
3:53 pm 15:53 Sunny 82 27.8 47 8.3 29 29 N N/A 29.97 1015 10 16 N/A
4:53 pm 16:53 Sunny 83 28.3 48 8.9 30 30 E 5 7 29.96 1014 10 16 N/A
5:53 pm 17:53 Sunny 83 28.3 52 11.1 34 34 SSE 3 6 29.93 1014 10 16 N/A
6:53 pm 18:53 Sunny 82 27.8 54 12.2 38 38 SSW 6 9 29.93 1014 10 16 N/A
7:53 pm 19:53 Sunny 78 25.6 57 13.9 48 48 S 6 9 29.92 1013 10 16 N/A
8:53 pm 20:53 Sunny 76 24.4 58 14.4 54 54 N N/A 29.92 1013 10 16 N/A
9:53 pm 21:53 Clear 69 20.6 60 15.6 73 73 N N/A 29.91 1013 10 16 N/A
10:53 pm 22:53 Clear 64 17.8 60 15.6 87 87 N N/A 29.93 1014 10 16 N/A
11:53 pm 23:53 Clear 65 18.3 60 15.6 84 84 N N/A 29.92 1013 10 16 N/A

Powered by AerisWeather